Location: *
(48.4333°N, 5.0333°W)
Time: 22:31:21
(UTC+00:00)

Cosmos 1833 Rocket - Pass Details

Date: 09 April 2020
Orbit: 834 x 838 km, 71.0° (Epoch: 05 June)

Event Time Altitude Azimuth Distance (km) Brightness Sun altitude
Exits shadow 20:38:46 15° 81° (E) 2,142 4.4 -15.4°
Drops below altitude 10° 20:40:40 10° 62° (ENE) 2,458 4.8 -15.7°
Sets 20:44:03 0° 42° (NE) 3,397 5.8 -16.2°
